Home > Weather > Ulsteinvik > Past weeks

Flag for Norway Past Weather in Ulsteinvik, Norway — Yesterday and Last 2 Weeks

Now
54 °F

Light rain. Partly cloudy.


Feels Like: 50 °F
Forecast: 50 / 61 °F
Wind: 10 mph from West

Location: Alesund / Vigra

Current Time: Aug 27, 2016 at 6:58:22 AM

Latest Report: Aug 27, 2016 at 6:20 AM


Visibility: N/A

Pressure: 29.89 "Hg

Humidity: 88%

Dew Point: 50 °F

Location of UlsteinvikLocation

Past Weather in Ulsteinvik — Graph

°F

Ulsteinvik Temperature Yesterday

Maximum temperature yesterday: 57 °F (at 12:20 AM)
Minimum temperature yesterday: 54 °F (at 9:20 PM)
Average temperature yesterday: 56 °F

High & Low Weather Summary for the Past Weeks

 TemperatureHumidityPressure
High68 °F (Aug 17, 12:50 PM)100% (Aug 12, 9:20 PM)30.30 "Hg (Aug 12, 9:20 PM)
Low46 °F (Aug 14, 4:50 AM)49% (Aug 14, 4:20 PM)29.47 "Hg (Aug 12, 5:50 PM)
Average57 °F87%29.97 "Hg
* Reported Aug 12 5:20 AM — Aug 27 5:20 AM, Ulsteinvik, Weather by CustomWeather, © 2016

Note: Actual official high and low records may vary slightly from our data, if they occured in-between our weather recording intervals... More about our weather records

Advertising

Ulsteinvik Weather History for the Previous 24 Hours

Scroll right to see more
 ConditionsComfort  
Time TempWeatherWind HumidityBarometerVisibility
5:20 AM
Sat, Aug 27
54 °FLight rain. Overcast.9 mph94%29.86 "HgN/A
4:50 AM54 °FPartly cloudy.10 mph88%29.86 "HgN/A
4:20 AM54 °FLight rain. Partly cloudy.6 mph94%29.83 "HgN/A
3:50 AM54 °FLight rain. Passing clouds.9 mph94%29.83 "HgN/A
3:20 AM54 °FLight rain. Mostly cloudy.13 mph88%29.80 "HgN/A
2:50 AM54 °FLight rain. Overcast.15 mph88%29.80 "HgN/A
2:20 AM54 °FDrizzle. Mostly cloudy.15 mph88%29.80 "HgN/A
1:50 AM54 °FLight rain. Partly cloudy.14 mph88%29.77 "HgN/A
1:20 AM54 °FLight rain. Passing clouds.14 mph88%29.74 "HgN/A
12:50 AM54 °FLight rain. Partly cloudy.12 mph94%29.74 "HgN/A
12:20 AM54 °FLight rain. Partly cloudy.9 mph94%29.71 "HgN/A
11:50 PM
Fri, Aug 26
54 °FLight rain. Partly cloudy.10 mph94%29.71 "HgN/A
11:20 PM54 °FLight rain. Partly cloudy.12 mph94%29.68 "HgN/A
10:50 PM54 °FLight rain. Partly cloudy.12 mph94%29.68 "HgN/A
10:20 PM55 °FLight rain. Partly cloudy.13 mph88%29.68 "HgN/A
9:50 PM54 °FLight rain. Broken clouds.13 mph94%29.65 "HgN/A
9:20 PM54 °FRain. Broken clouds.14 mph100%29.65 "Hg4 mi
8:50 PM55 °FDrizzle. Broken clouds.10 mph94%29.62 "Hg6 mi
8:20 PM55 °FDrizzle. Broken clouds.10 mph94%29.62 "Hg6 mi
7:50 PM55 °FLight rain. Broken clouds.10 mph94%29.62 "Hg6 mi
7:20 PM55 °FLight rain. Broken clouds.10 mph94%29.59 "HgN/A
6:50 PM55 °FLight rain. Broken clouds.13 mph94%29.59 "Hg5 mi
6:20 PM55 °FLight rain. Broken clouds.12 mph94%29.59 "Hg4 mi
5:50 PM55 °FLight rain. Broken clouds.12 mph94%29.59 "Hg6 mi
5:20 PM55 °FRain. Broken clouds.12 mph100%29.56 "Hg4 mi
4:50 PM55 °FRain. Broken clouds.13 mph94%29.56 "Hg4 mi
4:20 PM55 °FRain. Broken clouds.14 mph94%29.53 "Hg4 mi
3:50 PM55 °FDrizzle. Broken clouds.14 mph100%29.53 "Hg4 mi
3:20 PM55 °FDrizzle. Broken clouds.6 mph94%29.53 "Hg4 mi
2:50 PM55 °FLight rain. Broken clouds.3 mph94%29.53 "HgN/A
2:20 PM55 °FLight rain. Broken clouds.12 mph94%29.53 "HgN/A
1:50 PM55 °FLight rain. Broken clouds.9 mph94%29.56 "HgN/A
1:20 PM55 °FLight rain. Broken clouds.12 mph94%29.59 "Hg4 mi
12:50 PM55 °FLight rain. Broken clouds.9 mph94%29.62 "HgN/A
11:50 AM57 °FRain. Partly sunny.16 mph88%29.68 "HgN/A
11:20 AM57 °FLight rain. Broken clouds.12 mph88%29.71 "HgN/A
10:50 AM55 °FLight rain. Partly sunny.12 mph94%29.74 "HgN/A
10:20 AM57 °FLight rain. Broken clouds.17 mph88%29.74 "HgN/A
9:50 AM57 °FBroken clouds.13 mph88%29.74 "HgN/A
9:20 AM57 °FScattered clouds.17 mph88%29.77 "HgN/A
8:50 AM57 °FScattered clouds.15 mph88%29.80 "HgN/A
8:20 AM57 °FPassing clouds.13 mph88%29.80 "HgN/A
7:50 AM57 °FBroken clouds.16 mph88%29.83 "HgN/A
7:20 AM57 °FScattered clouds.15 mph88%29.86 "HgN/A
6:50 AM55 °FPassing clouds.9 mph94%29.89 "HgN/A
6:20 AM55 °FPassing clouds.10 mph94%29.89 "HgN/A
Weather by CustomWeather, © 2016

See weather overviewHow to use our weather pages